User: anonymous   Login
Location: Mount Tamalpais State Park
(37.9108°N, 122.6128°W)
Time: 01:44:42
(UTC-07:00)
Language:

Cosmos 1814 Rocket - Orbit

View from above orbital plane
View from above orbital plane
View from above satellite
View from above satellite

Ground track
Ground track

The orbit data is extracted from the following two-line orbital elements,

1 17304U 87006B   16150.37880802  .00000052  00000-0  25930-4 0  9995
2 17304  74.0601  76.0949 0029461   9.0216 351.1461 14.37569976538149
Epoch (UTC): 29 May 2016 09:05:29
Eccentricity: 0.0029461
inclination: 74.0601°
perigee height: 745 km
apogee height: 787 km
right ascension of ascending node: 76.0949°
argument of perigee: 9.0216°
revolutions per day: 14.37569976
mean anomaly at epoch: 351.1461°
orbit number at epoch: 53814

The dashed part of the orbit path shows where the satellite is in the earth's shadow,  

DLR